Location: Kapla
(46.2483°N, 15.0094°E)
Time: 18:35:14
(UTC+00:00)

ATLAS CENTAUR R/B - Pass Details

Date: 03 March 2021
Orbit: 475 x 670 km, 64.7° (Epoch: 30 March)

Event Time Altitude Azimuth Distance (km) Brightness Sun altitude
Rises 18:18:55 0° 216° (SW) 2,521 5.1 -16.3°
Reaches altitude 10° 18:21:02 10° 217° (SW) 1,640 4.1 -16.6°
Maximum altitude 18:24:40 87° 302° (WNW) 482 1.0 -17.3°
Enters shadow 18:27:02 21° 35° (NE) 1,129 2.7 -17.7°
